FENGYUN 1C DEB, 31082

Orbit data source: Space-Track

FENGYUN 1C DEB, 31082 is space debris in SSO originally from a launch on Mon, 10 May 1999 UTC launched from the Taiyaun Space Center, China (TSC). Fengyun 1C debris stems from the Chinese weather satellite Fengyun-1C, which was intentionally destroyed by a Chinese anti-satellite missile in 2007. This event dramatically increased the amount of space debris, with thousands of trackable fragments posing hazards to satellites and human spaceflight. The Fengyun 1C debris cloud has become a focal point in discussions about space sustainability and the need for international regulations to prevent the creation of new debris.

Loading next visibility...
Identifier
31082, 1999-025BGC
Orbit
SSO
Country
Flag of CNCN / PRC
Related business
Manufacturer
Unknown
Mission
Spacecraft
Bus & Motor
Unknown
Mass
Unknown
Launch date (UTC)
1999-05-10 (27 years ago)
Launch vehicle
Unknown
Launch site
Taiyaun Space Center, China (TSC)
Object type
Payload
Rocket body
Debris
Shape & HBR
Unknown shape, 0.1 m
Radar Cross Section
Small (<0.1 m²)

Expand to show TLE details & history
Last TLE update: 3 months ago

TLE from 3 months ago
0 FENGYUN 1C DEB
1 31082U 99025BGC 25262.78893709  .00001242  00000-0  67379-3 0  9991
2 31082  98.6775 272.8288 0070657  79.7949 281.1183 14.12876090951248
Epoch: 2025-09-19T18:56Z
TLE epoch observation values (Epoch: 2025-09-19T18:56:04.164Z)
Latitude
0.00001°
Longitude
-10.1197°
Altitude
842.951 km
Speed
7.436 km/s
True Right ascension
18h 11m 18s
True Declination
0° 00' 00"
Sunlit
Object was in daylight at epoch
Visualization orbit readout
Latitude
Unknown
Longitude
Unknown
Altitude
Unknown
Speed
Unknown
Apparent Right ascension
Unknown
Apparent Declination
Unknown
Sunlit
N/A
Visualization observer readout
Local Sidereal Time
05:19:12
Azimuth
Unknown
Elevation
Unknown
Doppler factor
Unknown
Orbital elements
Apogee altitude
897.761 km
Perigee altitude
795.664 km
Semi-major axis
7,224.85 km
Eccentricity
0.00707
Inclination
98.6775°
RAAN
272.8288°
Arg. of periapsis
79.7949°
True anomaly
280.3225°
Mean anomaly
281.1183°
Eccentric anomaly
280.72053°
Mean motion
3.53427 °/min
Orbital period
101.86 mins
BSTAR
0.00067379
Loading maneuver chart data...
Computing Atmospheric mass density...

Documentation

Showing up to 5 results
|